Location: ?????????
(44.2517°N, 135.2292°E)
Time: 04:34:41
(UTC+00:00)

BREEZE-M DEB (TANK) - Pass Details

Date: 19 May 2025
Orbit: 288 x 20026 km, 49.3° (Epoch: 19 June)

Event Time Altitude Azimuth Distance (km) Brightness Sun altitude
Rises 11:45:42 0° 270° (W) 7,837 9.4 -12.6°
Reaches altitude 10° 11:53:26 10° 276° (W) 4,576 8.2 -13.6°
Maximum altitude 12:01:58 46° 349° (NNW) 931 4.4 -14.6°
Drops below altitude 10° 12:04:46 10° 66° (ENE) 1,523 4.9 -14.9°
Enters shadow 12:05:10 - 69° (ENE) 1,704 5.1 -15.0°
